Buena Park, CA

3:23 PM PDT on July 29, 2016 (GMT -0700)
Fullerton Municipal

Weather History for KFUL - September, 2011

Change the Weather History Date:

Thursday, September 29, 2011

  Actual Average Record
Temperature  
Mean Temperature 73 °F 71 °F  
Max Temperature 84 °F 81 °F 104 °F (1999)
Min Temperature 62 °F 61 °F 56 °F (2006)
Degree Days  
Heating Degree Days 0 0  
Month to date heating degree days 0 0  
Since 1 July heating degree days 0 0  
Cooling Degree Days 8 6  
Month to date cooling degree days 253 249  
Year to date cooling degree days 1010 1112  
Growing Degree Days 22 (Base 50)    
Moisture  
Dew Point 59 °F    
Average Humidity 65    
Maximum Humidity 90    
Minimum Humidity 40    
Precipitation  
Precipitation 0.00 in 0.02 in 0.02 in (1966)
Month to date precipitation 0.06 0.23  
Year to date precipitation 5.63 9.97  
Since 1 July precipitation 0.06  
Snow  
Snow 0.00 in - - ()
Month to date snowfall 0.0  
Year to date snowfall 0.0  
Snow Depth 0.00 in    
Sea Level Pressure  
Sea Level Pressure 29.95 in    
Wind  
Wind Speed 2 mph (SSW)    
Max Wind Speed 10 mph    
Max Gust Speed 13 mph    
Visibility 7 miles    
Events      
T = Trace of Precipitation, MM = Missing Value Source: NWS Daily Summary

Daily Weather History Graph

Daily Weather History Graph

Search for Another Location

Airport or City:

Trip Planner

Search our weather history database for the weather conditions in past years. The results will help you decide how hot, cold, wet, or windy it might be!

Date:

Astronomy

Sep. 29, 2011 Rise Set
Actual Time 6:44 AM PDT 6:39 PM PDT
Civil Twilight 6:19 AM PDT 7:04 PM PDT
Nautical Twilight 5:50 AM PDT 7:32 PM PDT
Astronomical Twilight 5:21 AM PDT 8:02 PM PDT
Moon 9:23 AM PDT 8:07 PM PDT
Length of Visible Light 12h 44m
Length of Day
11h 54m
Waxing Crescent, 8% of the Moon is Illuminated
Sep 29
Waxing Crescent
Oct 3
First Quarter
Oct 11
Full
Oct 19
Last Quarter
Oct 26
New

Hourly Weather History & Observations

Time (PDT) Temp. Heat Index Dew Point Humidity Pressure Visibility Wind Dir Wind Speed Gust Speed Precip Events Conditions
12:53 AM 64.9 °F - 59.0 °F 81% 29.97 in 8.0 mi Calm Calm - N/A   Clear
1:53 AM 63.0 °F - 57.9 °F 84% 29.96 in 7.0 mi Calm Calm - N/A   Clear
2:53 AM 62.1 °F - 57.9 °F 86% 29.96 in 6.0 mi Calm Calm - N/A   Clear
3:53 AM 62.1 °F - 57.9 °F 86% 29.94 in 6.0 mi Calm Calm - N/A   Clear
4:53 AM 62.1 °F - 57.9 °F 86% 29.94 in 6.0 mi Calm Calm - N/A   Clear
5:53 AM 62.1 °F - 57.0 °F 84% 29.95 in 6.0 mi Calm Calm - N/A   Haze
6:03 AM 62.6 °F - 57.2 °F 82% 29.95 in 7.0 mi Calm Calm - N/A   Mostly Cloudy
7:53 AM 64.0 °F - 60.1 °F 87% 29.97 in 4.0 mi Calm Calm - N/A   Overcast
8:53 AM 64.0 °F - 59.0 °F 84% 29.97 in 3.0 mi Calm Calm - N/A   Haze
9:24 AM 66.2 °F - 60.8 °F 83% 29.98 in 3.0 mi Calm Calm - N/A   Haze
9:53 AM 68.0 °F - 60.1 °F 76% 29.98 in 4.0 mi Calm Calm - N/A   Haze
10:28 AM 69.8 °F - 60.8 °F 73% 29.98 in 4.0 mi Calm Calm - N/A   Haze
10:53 AM 73.0 °F - 60.1 °F 64% 29.97 in 5.0 mi Variable 3.5 mph - N/A   Haze
11:53 AM 77.0 °F - 59.0 °F 54% 29.96 in 6.0 mi Variable 3.5 mph - N/A   Haze
1:53 PM 82.0 °F 82.1 °F 59.0 °F 45% 29.92 in 10.0 mi WSW 6.9 mph - N/A   Clear
2:53 PM 82.0 °F 82.1 °F 59.0 °F 45% 29.90 in 10.0 mi SSW 6.9 mph - N/A   Clear
3:53 PM 79.0 °F - 60.1 °F 52% 29.89 in 10.0 mi South 6.9 mph - N/A   Clear
5:53 PM 75.0 °F - 57.9 °F 55% 29.90 in 10.0 mi South 5.8 mph - N/A   Clear
6:53 PM 72.0 °F - 57.9 °F 61% 29.91 in 10.0 mi South 4.6 mph - N/A   Clear
7:53 PM 69.1 °F - 59.0 °F 70% 29.93 in 10.0 mi Calm Calm - N/A   Clear
9:53 PM 66.9 °F - 59.0 °F 76% 29.97 in 10.0 mi Calm Calm - N/A   Clear
10:53 PM 66.0 °F - 59.0 °F 78% 29.97 in 10.0 mi Calm Calm - N/A   Clear
11:53 PM 64.9 °F - 59.0 °F 81% 29.97 in 10.0 mi Calm Calm - N/A   Clear